GOES 10 [-]

Last updated on Jan. 23, 2021, 7:09 a.m. UTC

1 24786U 97019A   21022.60676132  .00000032  00000-0  00000-0 0  9996
2 24786  10.8466  33.8085 0025804 196.8607   2.4782  0.99121617 86527
UTC
Height (km)
Latitude
Longitude
Inclination
Orbital Period
UTC large
Height (km)
Speed (km/s)
/
Latitude / Longitude
Inclination (degrees)
Orbital Period (minutes)
Azimuth
Elevation
Range (km)
Doppler Factor
iOS Compass Heading
iOS Angle

Next 30 passes for location: Hong Kong

Rise time Rise Azimuth (degrees) Set time Set Azimuth (degrees) Duration Max altitude (degrees)

No matching passes for this satellites